Flag for Faroe Islands Weather past 2 weeks in Tórshavn, Faroe Islands, Faroe Islands

Now
46 °F

Partly sunny.


Feels Like: 41 °F
Forecast: 44 / 48 °F
Wind: 10 mph from West

Location: Soervaag / Vagar

Current Time: May 25, 2015 at 9:10:24 AM

Latest Report: May 25, 2015 at 8:50 AM


Visibility: N/A

Pressure: 29.86 "Hg

Humidity: 87%

Dew point: 43 °F

Location of TórshavnLocation

Historic Weather in Tórshavn — Graph

°F

Tórshavn temperature yesterday

Maximum temperature yesterday: 46 °F (at 10:50 AM)
Minimum temperature yesterday: 43 °F (at 1:20 AM)
Average temperature yesterday: 45 °F

Past Weeks' High & Low Weather Summary

 TemperatureHumidityPressure
High50 °F (May 11, 12:20 PM)100% (May 10, 11:50 PM)30.21 "Hg (May 10, 11:50 PM)
Low32 °F (May 14, 1:20 AM)57% (May 13, 10:51 AM)29.15 "Hg (May 12, 3:50 AM)
Average43 °F82%29.70 "Hg
* Reported May 10 7:20 AM — May 25 7:50 AM, Tórshavn, Weather by CustomWeather, © 2015

Note: Actual official high and low records may vary slightly from our data, if they occured in-between our weather recording intervals... More about our weather records

Advertising

Tórshavn weather history for previous 24 hours

 ConditionsComfort  
Time TempWeatherWind HumidityBarometerVisibility
7:50 AM
Mon, May 25
46 °FBroken clouds.10 mph87%29.83 "HgN/A
7:20 AM46 °FScattered clouds.6 mph82%29.83 "HgN/A
6:50 AM46 °FPartly sunny.5 mph82%29.80 "HgN/A
6:20 AM45 °FPartly sunny.6 mph81%29.80 "HgN/A
5:50 AM45 °FScattered clouds.7 mph87%29.77 "HgN/A
5:20 AM45 °FPartly sunny.12 mph87%29.77 "HgN/A
4:50 AM45 °FPassing clouds.13 mph93%29.77 "HgN/A
4:20 AM45 °FPassing clouds.12 mph93%29.74 "HgN/A
3:50 AM45 °FPassing clouds.13 mph93%29.74 "HgN/A
3:20 AM45 °FPassing clouds.15 mph87%29.74 "HgN/A
2:50 AM45 °FOvercast.15 mph87%29.74 "HgN/A
2:20 AM45 °FPassing clouds.15 mph87%29.74 "HgN/A
1:50 AM45 °FPassing clouds.17 mph93%29.71 "HgN/A
1:20 AM45 °FSprinkles. Passing clouds.14 mph87%29.71 "Hg4 mi
12:50 AM43 °FSprinkles. Passing clouds.8 mph87%29.71 "HgN/A
12:20 AM45 °FPassing clouds.16 mph81%29.71 "HgN/A
11:50 PM
Sun, May 24
45 °FPassing clouds.15 mph87%29.71 "HgN/A
11:20 PM45 °FPartly sunny.12 mph87%29.71 "HgN/A
10:20 PM45 °FPartly sunny.15 mph87%29.71 "HgN/A
9:50 PM45 °FPartly sunny.15 mph87%29.71 "HgN/A
9:20 PM45 °FOvercast.10 mph93%29.68 "HgN/A
8:51 PM45 °FPartly sunny.15 mph93%29.68 "HgN/A
8:20 PM45 °FSprinkles. Partly sunny.8 mph87%29.68 "HgN/A
8:09 PM45 °FPartly sunny.12 mph81%29.68 "HgN/A
7:20 PM45 °FPartly sunny.16 mph87%29.68 "HgN/A
6:50 PM46 °FBroken clouds.15 mph82%29.68 "HgN/A
6:20 PM46 °FPartly sunny.18 mph82%29.68 "HgN/A
5:50 PM46 °FScattered showers. Partly sunny.18 mph82%29.65 "HgN/A
5:20 PM45 °FSprinkles. Partly sunny.15 mph87%29.65 "HgN/A
4:50 PM45 °FBroken clouds.17 mph87%29.65 "HgN/A
4:20 PM45 °FBroken clouds.14 mph87%29.65 "HgN/A
3:50 PM45 °FSprinkles. Partly sunny.13 mph87%29.65 "HgN/A
2:57 PM45 °FSprinkles. Broken clouds.18 mph81%29.65 "HgN/A
1:55 PM46 °FSprinkles. Broken clouds.18 mph76%29.65 "HgN/A
12:50 PM46 °FLight rain. Broken clouds.15 mph76%29.62 "HgN/A
11:50 AM46 °FBroken clouds.20 mph76%29.62 "HgN/A
10:50 AM46 °FRain showers. Broken clouds.16 mph76%29.62 "HgN/A
10:00 AM43 °FRain showers. Broken clouds.13 mph81%29.59 "HgN/A
Weather by CustomWeather, © 2015

See weather overviewHow to use our weather pages